Location: Camp at the Woods
(43.2055°N, 93.0905°W)
Time: 06:38:22
(UTC+00:00)

SL-16 R/B - Pass Details

Date: 05 December 2023
Orbit: 842 x 846 km, 71.0° (Epoch: 29 February)

Event Time Altitude Azimuth Distance (km) Brightness Sun altitude
Rises 23:29:19 0° 328° (NNW) 3,413 5.5 -9.3°
Reaches altitude 10° 23:31:55 10° 321° (NW) 2,473 4.9 -9.8°
Maximum altitude 23:37:06 38° 254° (WSW) 1,261 3.9 -10.7°
Drops below altitude 10° 23:42:16 10° 188° (S) 2,454 5.0 -11.5°
Sets 23:44:50 0° 180° (S) 3,384 5.6 -12.0°
